Location: Bukit Nyuki
(2.5885°N, 113.7476°E)
Time: 06:25:03
(UTC+00:00)

Cosmos 2219 Rocket - Pass Details

Date: 18 May 2021
Orbit: 827 x 847 km, 71.0° (Epoch: 22 June)

Event Time Altitude Azimuth Distance (km) Brightness Sun altitude
Exits shadow 20:43:38 18° 311° (NW) 1,971 3.9 -22.0°
Drops below altitude 10° 20:45:52 10° 333° (NNW) 2,450 4.6 -21.5°
Sets 20:48:57 0° 349° (N) 3,385 5.5 -20.7°
